Montreal Mirabel, Quebec

9:51 PM EDT on August 25, 2016 (GMT -0400)
Montreal International (Mirabel)

Weather History for CYMX - February, 2012

Change the Weather History Date:

Tuesday, February 28, 2012

  Actual Average Record
Temperature  
Mean Temperature 18 °F -  
Max Temperature 23 °F 26 °F 37 °F (1998)
Min Temperature 8 °F 10 °F -5 °F (2001)
Degree Days  
Heating Degree Days 48    
Moisture  
Dew Point 10 °F    
Average Humidity 70    
Maximum Humidity 93    
Minimum Humidity 54    
Precipitation  
Precipitation 0.00 in - - ()
Sea Level Pressure  
Sea Level Pressure 30.36 in    
Wind  
Wind Speed 5 mph ()    
Max Wind Speed 14 mph    
Max Gust Speed 20 mph    
Visibility 14.4 miles    
Events Snow    
Averages and records for this station are not official NWS values.
T = Trace of Precipitation, MM = Missing Value Source: Averaged Metar Reports

Daily Weather History Graph

Daily Weather History Graph

Search for Another Location

Airport or City:

Trip Planner

Search our weather history database for the weather conditions in past years. The results will help you decide how hot, cold, wet, or windy it might be!

Date:

Astronomy

Feb. 28, 2012 Rise Set
Actual Time 6:37 AM EST 5:40 PM EST
Civil Twilight 6:07 AM EST 6:10 PM EST
Nautical Twilight 5:33 AM EST 6:45 PM EST
Astronomical Twilight 4:58 AM EST 7:19 PM EST
Moon 9:20 AM EST (2/28) No Moon Set
Length of Visible Light 12h 03m
Length of Day
11h 03m
Waxing Crescent, 37% of the Moon is Illuminated
Feb 28
Waxing Crescent
Feb 29
First Quarter
Mar 8
Full
Mar 14
Last Quarter
Mar 22
New

Hourly Weather History & Observations

Time (EST) Temp. Windchill Dew Point Humidity Pressure Visibility Wind Dir Wind Speed Gust Speed Precip Events Conditions
12:00 AM 17.6 °F - 15.8 °F 93% 30.09 in 10.0 mi Calm Calm - N/A Snow Light Snow
1:00 AM 19.4 °F 12.8 °F 15.8 °F 86% 30.11 in 15.0 mi SW 4.6 mph - N/A Snow Light Snow
2:00 AM 19.4 °F 11.5 °F 15.8 °F 86% 30.14 in 15.0 mi SW 5.8 mph - N/A Snow Light Snow
3:00 AM 19.4 °F 11.5 °F 17.6 °F 93% 30.18 in 15.0 mi West 5.8 mph - N/A Snow Light Snow
3:20 AM 19.4 °F 14.3 °F 15.8 °F 86% - 15.0 mi WNW 3.5 mph - N/A   Overcast
4:00 AM 23.0 °F 12.4 °F 15.8 °F 74% 30.23 in 15.0 mi NW 10.4 mph 17.3 mph N/A   Overcast
5:00 AM 21.2 °F 11.7 °F 12.2 °F 68% 30.27 in 15.0 mi WNW 8.1 mph - N/A   Overcast
6:00 AM 15.8 °F 7.2 °F 8.6 °F 73% 30.33 in 15.0 mi West 5.8 mph - N/A   Mostly Cloudy
7:00 AM 15.8 °F 6.1 °F 6.8 °F 68% 30.38 in 25.0 mi WNW 6.9 mph - N/A   Partly Cloudy
8:00 AM 14.0 °F 5.1 °F 6.8 °F 73% 30.43 in 25.0 mi West 5.8 mph - N/A   Partly Cloudy
9:00 AM 17.6 °F 9.3 °F 6.8 °F 63% 30.45 in 25.0 mi West 5.8 mph - N/A   Partly Cloudy
10:00 AM 19.4 °F 12.8 °F 6.8 °F 58% 30.45 in 45.0 mi WSW 4.6 mph - N/A   Clear
11:00 AM 21.2 °F 11.7 °F 8.6 °F 58% 30.46 in 45.0 mi SW 8.1 mph - N/A   Partly Cloudy
12:00 PM 21.2 °F 8.3 °F 8.6 °F 58% 30.45 in 45.0 mi SW 13.8 mph - N/A   Mostly Cloudy
1:00 PM 23.0 °F 11.1 °F 8.6 °F 54% 30.44 in 45.0 mi SW 12.7 mph 19.6 mph N/A   Mostly Cloudy
2:00 PM 23.0 °F 13.1 °F 10.4 °F 59% 30.43 in 45.0 mi SW 9.2 mph - N/A   Overcast
3:00 PM 23.0 °F 13.9 °F 10.4 °F 59% 30.43 in 45.0 mi WSW 8.1 mph 18.4 mph N/A   Overcast
4:00 PM 23.0 °F 13.1 °F 10.4 °F 59% 30.42 in 45.0 mi SW 9.2 mph - N/A   Mostly Cloudy
5:00 PM 23.0 °F 12.4 °F 10.4 °F 59% 30.42 in 45.0 mi WSW 10.4 mph - N/A   Partly Cloudy
6:00 PM 21.2 °F 10.9 °F 8.6 °F 58% 30.43 in 25.0 mi WSW 9.2 mph - N/A   Partly Cloudy
7:00 PM 19.4 °F 11.5 °F 8.6 °F 63% 30.44 in 25.0 mi WSW 5.8 mph - N/A   Partly Cloudy
8:00 PM 15.8 °F 8.6 °F 6.8 °F 68% 30.43 in 25.0 mi WSW 4.6 mph - N/A   Clear
9:00 PM 15.8 °F 8.6 °F 6.8 °F 68% 30.43 in 25.0 mi West 4.6 mph - N/A   Clear
10:00 PM 12.2 °F 4.3 °F 6.8 °F 79% 30.42 in 25.0 mi SW 4.6 mph - N/A   Clear
11:00 PM 8.6 °F 0.1 °F 3.2 °F 79% 30.42 in 25.0 mi WSW 4.6 mph - N/A   Clear